第七屆(2016)北區豐盛人生健樂長跑比賽
4 DEC, 2016 Saturday Temperature : 20°C;  Humidity : 81%
地區團體及部門

RkTeam
隊伍排名

RkLeg
隊員編號
Bib
號碼布編號
NameEng
英文姓名
NameChi
中文姓名

Gender
性別

Team
隊名
OfficialTime
大會時間
TeamTime
隊伍時間
1 1 T281 陳健威 CHAN KIN WAI M 警察田徑會 00:36:09 01:49:10
1 2 T285 陳澔漳 CHAN HO CHEUNG M 警察田徑會 00:36:11 01:49:10
1 3 T283 何雍賢 HO YUNG YIN M 警察田徑會 00:36:51 01:49:10
1 4 T282 何振豪 HO CHUN HO M 警察田徑會 00:37:01 01:49:10
1 5 T284 劉錦輝 LAU KAM FAI M 警察田徑會 00:37:27 01:49:10
1 6 T286 鄭武宣 CHENG MO SUEN M 警察田徑會 00:38:14 01:49:10
2 1 T204 連卓峰 Lin CHeuk Fung M 社會福利署(三) 00:38:23 02:01:29
2 2 T205 袁進康 YUEN CHUN HONG M 社會福利署(三) 00:40:17 02:01:29
2 3 T203 陳鍚寧 Chan Sik Ning M 社會福利署(三) 00:42:50 02:01:29
2 4 T206 陳景熙 CHAN KING HEI M 社會福利署(三) 00:44:03 02:01:29
2 5 T202 楊志成 YEUNG CHI SHING M 社會福利署(三) 00:44:09 02:01:29
2 6 T201 任滿河 YAM MOON HO M 社會福利署(三) 01:16:28 02:01:29
3 1 T245 高國峰 Ko Kwok Fung M 機電工程署 (A隊) 00:40:24 02:05:09
3 2 T243 鍾麗龍 Chung Lai Lung M 機電工程署 (A隊) 00:41:36 02:05:09
3 3 T241 唐劍明 Tong Kim Ming M 機電工程署 (A隊) 00:43:10 02:05:09
3 4 T242 王穎深 Wong Wing Sum M 機電工程署 (A隊) 00:44:00 02:05:09
3 5 T244 林子豪 Lam Tze Ho M 機電工程署 (A隊) 00:44:23 02:05:09
3 6 T246 郭家俊 Kwok Ka Chun M 機電工程署 (A隊) 00:54:41 02:05:09
4 T165 劉君樂 LAU KWAN LOK M 大埔警區 二隊 01:17:08 02:12:25
4 1 T166 李澤基 LI CHAK KEI M 大埔警區 二隊 00:42:47 02:12:25
4 2 T164 鄧海榮 TANG HOI WING M 大埔警區 二隊 00:44:13 02:12:25
4 3 T163 何友承 HO YAU SHING M 大埔警區 二隊 00:45:26 02:12:25
4 4 T162 陳冠彬 CHAN KWUN PAN M 大埔警區 二隊 00:50:13 02:12:25
4 5 T161 鄭曉兒 CHEUNG HIU YEE F 大埔警區 二隊 00:55:18 02:12:25
5 1 T135 LAI CHUN KIT M HONG KONG POLICE FORCE BORDER DISTRICT (TEAM1) 00:43:10 02:13:15
5 2 T132 CHENG WING SEE F HONG KONG POLICE FORCE BORDER DISTRICT (TEAM1) 00:44:31 02:13:15
5 3 T133 YAU SIU KEI M HONG KONG POLICE FORCE BORDER DISTRICT (TEAM1) 00:45:34 02:13:15
5 4 T134 MAK PUI YUEN M HONG KONG POLICE FORCE BORDER DISTRICT (TEAM1) 00:50:46 02:13:15
5 5 T131 CHEUNG WAI YAN F HONG KONG POLICE FORCE BORDER DISTRICT (TEAM1) 00:53:29 02:13:15
5 6 T136 IP CHING M HONG KONG POLICE FORCE BORDER DISTRICT (TEAM1) 00:55:24 02:13:15
6 T172 沈樑威 SIM LEUNG WAI  M 北區體育及文化推廣協會 00:42:41 02:13:06
6 T176 葉美欣 YIP MEI YAN M 北區體育及文化推廣協會 02:13:06
6 1 T171 黃智傑 WONG CHI KIT M 北區體育及文化推廣協會 00:42:35 02:13:06
6 2 T173 林志弘 LAM CHI WAN M 北區體育及文化推廣協會 00:43:54 02:13:06
6 3 T175 關家進 KWAN KA CHUN  M 北區體育及文化推廣協會 00:46:38 02:13:06
6 4 T174 陳伯雄 CHAN PAK HUNG M 北區體育及文化推廣協會 00:49:45 02:13:06
7 1 T212 洪賢洲 HUNG YIN CHAU M 社會福利署(四) 00:42:52 02:18:13
7 2 T215 劉曉輝 LAU HIU FAI M 社會福利署(四) 00:46:59 02:18:13
7 3 T213 梁蔭才 LEUNG YAM CHOI M 社會福利署(四) 00:48:23 02:18:13
7 4 T216 蘇畯 SO FRANKY M 社會福利署(四) 00:50:21 02:18:13
7 5 T211 梁潔森 Leung Kit Sum F 社會福利署(四) 00:56:13 02:18:13
7 6 T214 黎寶華 LAI PO WAH M 社會福利署(四) 00:57:20 02:18:13
8 1 T252 李金華 LEE Kam Wah M 機電工程署 (B隊) 00:43:06 02:19:02
8 2 T254 劉日明 LAU Yat Ming  M 機電工程署 (B隊) 00:46:59 02:19:02
8 3 T251 李錦璇 LEE Kam Suen Kitty F 機電工程署 (B隊) 00:48:59 02:19:02
8 4 T253 黃凱鋒 WONG Hoi Fung  M 機電工程署 (B隊) 00:49:53 02:19:02
8 5 T256 黃偉昌 Wong Wai Cheong M 機電工程署 (B隊) 00:51:43 02:19:02
8 6 T255 鄧偉雄 Tang Wai Hung M 機電工程署 (B隊) 00:53:56 02:19:02
9 1 T116 陳國朗 CHAN KWOK LUNG M HONG KONG POLICE FORCE BORDER DISTRICT (LOK MA CHAU) 00:47:52 02:30:25
9 2 T112 龍莘東 LUNG WAH TUNG M HONG KONG POLICE FORCE BORDER DISTRICT (LOK MA CHAU) 00:51:05 02:30:25
9 3 T113 陳家文 CHAN KA MAN M HONG KONG POLICE FORCE BORDER DISTRICT (LOK MA CHAU) 00:51:29 02:30:25
9 4 T111 嚴永亮 YIM WING LEONG M HONG KONG POLICE FORCE BORDER DISTRICT (LOK MA CHAU) 00:51:59 02:30:25
9 5 T115 陳家健 CHAN KA KIN M HONG KONG POLICE FORCE BORDER DISTRICT (LOK MA CHAU) 00:52:06 02:30:25
9 6 T114 鄧勤熹 TANG KAN HEI M HONG KONG POLICE FORCE BORDER DISTRICT (LOK MA CHAU) 00:53:03 02:30:25
10 1 T194 馮國雄 FUNG KWOK HUNG M 社會福利署(二) 00:49:17 02:32:58
10 2 T195 謝廣之 TSE MICHEAL M 社會福利署(二) 00:51:28 02:32:58
10 3 T196 蘇廣強 SO KWONG KEUNG M 社會福利署(二) 00:52:14 02:32:58
10 4 T193 WU HEI CHUN F 社會福利署(二) 00:56:27 02:32:58
10 5 T191 劉倩紅 LAU SIN HUNG F 社會福利署(二) 01:11:35 02:32:58
10 6 T192 陳詠雯 CHAN WING MA F 社會福利署(二) 01:12:53 02:32:58
11 1 T156 余榮輝 YU WING FAI M 大埔警區 一隊 00:44:50 02:27:41
11 2 T155 王嘉明 WONG KA MING  M 大埔警區 一隊 00:50:37 02:27:41
11 3 T152 黃健義 WONG KIN YEE M 大埔警區 一隊 00:52:15 02:27:41
11 4 T154 柯蔚鴻 OR WAI HUNG  M 大埔警區 一隊 00:56:14 02:27:41
11 5 T151 鄧雅玳 TANG NGA TOI F 大埔警區 一隊 01:03:22 02:27:41
11 6 T153 譚潤聰 TAM YUN CHUNG  M 大埔警區 一隊 01:15:11 02:27:41
12 1 T235 鄭偉豪 CHENG WAI HO M 香港警察打鼓嶺分區二組 00:51:40 02:37:45
12 2 T233 梁貴雲 LEUNG KWAI WAN M 香港警察打鼓嶺分區二組 00:52:43 02:37:45
12 3 T236 張嘉華 CHEUNG KA WAH M 香港警察打鼓嶺分區二組 00:53:23 02:37:45
12 4 T234 葉埠東 IP FO TUNG M 香港警察打鼓嶺分區二組 00:53:42 02:37:45
12 5 T231 吳毅業 NG NGAI YIP F 香港警察打鼓嶺分區二組 00:53:57 02:37:45
12 6 T232 黃遠航 WONG YUEN HONG M 香港警察打鼓嶺分區二組 01:03:05 02:37:45
13 T265 麥錦揚 MAK KAM YEUNG M 環境保護署 02:33:54
13 1 T262 阮宏昌 YEUN WANG CHEONG M 環境保護署 00:47:12 02:33:54
13 2 T264 郭志文 KWOK CHI MAN M 環境保護署 00:52:42 02:33:54
13 3 T263 何文湖 HO MAN WU M 環境保護署 00:54:01 02:33:54
13 4 T261 李佩珊 LEE PUI SHAN F 環境保護署 00:54:55 02:33:54
13 5 T266 羅業基 LAW YIP KEI M 環境保護署 00:57:41 02:33:54
14 T123 李啟鋒 LEE KAI FUNG M HONG KONG POLICE FORCE BORDER DISTRICT (SHA TAU KOK) 02:33:16
14 1 T124 徐德勝 TSUI TAK SHING M HONG KONG POLICE FORCE BORDER DISTRICT (SHA TAU KOK) 00:48:00 02:33:16
14 2 T125 吳國偉 NG KWOK WAI M HONG KONG POLICE FORCE BORDER DISTRICT (SHA TAU KOK) 00:50:54 02:33:16
14 3 T121 林笑鳯 LAM SIU FUNG F HONG KONG POLICE FORCE BORDER DISTRICT (SHA TAU KOK) 00:54:23 02:33:16
14 4 T122 羅三娣 LAW SAM TAI M HONG KONG POLICE FORCE BORDER DISTRICT (SHA TAU KOK) 00:55:35 02:33:16
15 T226 譚嘉明 TAM KA MING M 香港警察打鼓嶺分區一組 02:26:46
15 1 T224 麥志良 MAK CHI LEUNG M 香港警察打鼓嶺分區一組 00:45:27 02:26:46
15 2 T222 朱志偉 CHU CHI WAI M 香港警察打鼓嶺分區一組 00:45:46 02:26:46
15 3 T223 麥謙朗 MAK HIM LONG M 香港警察打鼓嶺分區一組 00:55:34 02:26:46
15 4 T225 范偉明 FAN WAI MING M 香港警察打鼓嶺分區一組 00:56:30 02:26:46
15 5 T221 溫詠麟 WAN WING LUN M 香港警察打鼓嶺分區一組 01:15:58 02:26:46
16 T143 李耀忠 LI YIU CHUNG M HONG KONG POLICE FORCE BORDER DISTRICT (TEAM2) 02:47:29
16 1 T141 麥永昌 MAK BENSON M HONG KONG POLICE FORCE BORDER DISTRICT (TEAM2) 00:47:19 02:47:29
16 2 T142 SEZ WAI PANG M HONG KONG POLICE FORCE BORDER DISTRICT (TEAM2) 00:52:00 02:47:29
16 3 T144 羅永雄 LAW WING HUNG M HONG KONG POLICE FORCE BORDER DISTRICT (TEAM2) 01:08:11 02:47:29
16 4 T145 黃大成 WONG TAI SHING M HONG KONG POLICE FORCE BORDER DISTRICT (TEAM2) 01:08:11 02:47:29
17 1 T183 葉麗川 YIP LAI CHUEN F 社會福利署(一) 00:48:30 02:51:42
17 2 T181 鐘積心 CHUNG CHIK SUM F 社會福利署(一) 00:54:45 02:51:42
17 3 T186 黃俊英 WONG CHUN YING F 社會福利署(一) 01:08:28 02:51:42
17 4 T185 吳秀霞 NG SAU HA F 社會福利署(一) 01:09:10 02:51:42
17 5 T182 鐘美玲 CHUNG MEI LING F 社會福利署(一) 01:10:32 02:51:42
17 6 T184 王桂鳯 WONG KWAI FUNG F 社會福利署(一) 01:16:28 02:51:42